W2PJ Weather Reports


time (UTC)temp
C
wind
direction
speed
KPH
gust
KPH
rain 1hr
cm
rain 24hr
cm
rain mn
cm
humidity
%
barometer
mb
20260504202519 20 257 6.4 24.1 0.00 0.00 0.00 42 1004.2
20260504202015 20 242 8.0 29.0 0.00 0.00 0.00 42 1004.3
20260504201515 20 255 14.5 29.0 0.00 0.00 0.00 42 1004.4
20260504201014 20 251 4.8 25.7 0.00 0.00 0.00 43 1004.4
20260504200513 20 237 6.4 25.7 0.00 0.00 0.00 43 1004.4
20260504200017 20 312 8.0 24.1 0.00 0.00 0.00 43 1004.5
20260504195511 20 292 11.3 24.1 0.00 0.00 0.00 42 1004.5
20260504195010 20 251 6.4 24.1 0.00 0.00 0.00 43 1004.7
20260504194511 20 231 8.0 29.0 0.00 0.00 0.00 42 1004.8
20260504194009 20 274 14.5 29.0 0.00 0.00 0.00 43 1005.0
20260504193511 20 272 3.2 43.5 0.00 0.00 0.00 45 1005.1
20260504193007 20 235 12.9 43.5 0.00 0.00 0.00 44 1005.1
20260504192505 19 242 6.4 25.7 0.00 0.00 0.00 45 1005.1
20260504192007 19 258 8.0 30.6 0.00 0.00 0.00 45 1005.1
20260504191503 19 259 17.7 30.6 0.00 0.00 0.00 45 1005.3
20260504191002 19 278 9.7 30.6 0.00 0.00 0.00 45 1005.2
20260504190503 19 252 17.7 38.6 0.00 0.00 0.00 44 1005.3
20260504190101 19 245 19.3 38.6 0.00 0.00 0.00 45 1005.4
20260504185559 19 254 17.7 29.0 0.00 0.00 0.00 47 1005.5
20260504185501 19 278 17.7 27.4 0.00 0.00 0.00 46 1005.4
20260504185059 19 266 14.5 27.4 0.00 0.00 0.00 46 1005.5
20260504184600 19 245 9.7 24.1 0.00 0.00 0.00 48 1005.5
20260504184057 19 261 6.4 30.6 0.00 0.00 0.00 47 1005.6
20260504183556 19 269 11.3 33.8 0.00 0.00 0.00 48 1005.7
20260504183055 19 241 4.8 30.6 0.00 0.00 0.00 48 1005.6
20260504182556 18 287 16.1 30.6 0.00 0.00 0.00 46 1005.7
20260504182052 19 259 14.5 37.0 0.00 0.00 0.00 47 1005.6
20260504181553 18 278 16.1 37.0 0.00 0.00 0.00 47 1005.7
20260504181051 18 244 16.1 33.8 0.00 0.00 0.00 48 1005.8
20260504180549 18 244 16.1 40.2 0.00 0.00 0.00 48 1005.6
20260504180149 18 238 24.1 40.2 0.00 0.00 0.00 47 1005.9
20260504175548 18 302 12.9 30.6 0.00 0.00 0.00 49 1005.8
20260504175048 18 280 16.1 33.8 0.00 0.00 0.00 48 1005.9
20260504174553 18 241 16.1 32.2 0.00 0.00 0.00 49 1005.9
20260504174047 18 240 17.7 32.2 0.00 0.00 0.00 49 1006.0
20260504173547 18 268 14.5 27.4 0.00 0.00 0.00 48 1005.8
20260504173045 18 237 12.9 29.0 0.00 0.00 0.00 49 1005.9
20260504172548 18 278 16.1 33.8 0.00 0.00 0.00 49 1005.9
20260504172043 18 261 16.1 33.8 0.00 0.00 0.00 49 1005.9
20260504171541 18 235 16.1 24.1 0.00 0.00 0.00 50 1006.0
20260504171040 17 261 8.0 25.7 0.00 0.00 0.00 50 1006.0
20260504170539 17 266 6.4 20.9 0.00 0.00 0.00 50 1005.9
20260504151021 15 259 3.2 27.4 0.00 0.00 0.00 54 1007.3
20260504150517 15 286 9.7 25.7 0.00 0.00 0.00 53 1007.3
20260504141013 12 207 4.8 19.3 0.00 0.00 0.00 56 1007.7
20260504140507 12 175 3.2 16.1 0.00 0.00 0.00 55 1007.6
20260504130556 11 251 4.8 24.1 0.00 0.00 0.00 56 1008.0
20260504120117 10 212 4.8 24.1 0.00 0.00 0.00 57 1008.2
20260504110545 9 165 0.0 11.3 0.00 0.00 0.00 58 1008.2
20260504100540 9 238 0.0 6.4 0.00 0.00 0.00 59 1008.3
20260504081530 10 248 0.0 17.7 0.00 0.00 0.00 56 1008.5
20260504081027 10 255 3.2 14.5 0.00 0.00 0.00 55 1008.6
20260504080527 10 252 0.0 14.5 0.00 0.00 0.00 55 1008.7
20260504050511 11 266 0.0 3.2 0.00 0.00 0.00 54 1009.1
20260504050010 11 176 0.0 3.2 0.00 0.00 0.00 54 1009.2
20260504045509 11 248 0.0 3.2 0.00 0.00 0.00 55 1009.2
20260504045014 10 264 0.0 1.6 0.00 0.00 0.00 56 1009.2
20260504044511 10 242 0.0 1.6 0.00 0.00 0.00 56 1009.2
20260504044007 10 257 0.0 1.6 0.00 0.00 0.00 57 1009.3
20260504043507 10 257 0.0 1.6 0.00 0.00 0.00 57 1009.2
20260504043010 10 247 0.0 0.0 0.00 0.00 0.00 58 1009.3
20260504042506 10 262 0.0 1.6 0.00 0.00 0.00 58 1009.3
20260504042004 10 247 0.0 1.6 0.00 0.00 0.00 59 1009.3
20260504041504 10 247 0.0 0.0 0.00 0.00 0.00 60 1009.3
20260504041003 10 264 0.0 0.0 0.00 0.00 0.00 61 1009.4
20260504040502 10 253 0.0 0.0 0.00 0.00 0.00 61 1009.4
20260504040001 10 251 0.0 0.0 0.00 0.00 0.00 62 1009.6
20260504035502 10 240 0.0 0.0 0.00 0.00 0.00 62 1009.6
20260504035100 10 227 0.0 0.0 0.00 0.00 0.00 63 1009.6
20260504034600 9 217 0.0 0.0 0.00 0.00 0.00 64 1009.6
20260504034501 9 238 0.0 0.0 0.00 0.00 0.00 64 1009.7
20260504034100 9 169 0.0 1.6 0.00 0.00 0.00 64 1009.7
20260504033600 9 264 0.0 1.6 0.00 0.00 0.00 65 1009.8
20260504033123 9 234 0.0 0.0 0.00 0.00 0.00 66 1009.7
20260504032600 9 227 0.0 0.0 0.00 0.00 0.00 66 1009.7
20260504032059 9 223 0.0 0.0 0.00 0.00 0.00 67 1009.7
20260504031600 8 152 0.0 0.0 0.00 0.00 0.00 68 1009.8
20260504031058 8 172 0.0 0.0 0.00 0.00 0.00 69 1009.8
20260504030600 8 159 0.0 1.6 0.00 0.00 0.00 70 1009.9
20260504030117 8 214 0.0 1.6 0.00 0.00 0.00 70 1009.9
20260504025558 8 167 0.0 1.6 0.00 0.00 0.00 70 1010.0
20260504025057 8 240 0.0 0.0 0.00 0.00 0.00 71 1010.0
20260504024559 8 249 0.0 0.0 0.00 0.00 0.00 71 1010.1
20260504024057 8 266 0.0 0.0 0.00 0.00 0.00 71 1010.3
20260504023558 8 231 0.0 14.5 0.00 0.00 0.00 71 1010.4
20260504023057 8 258 0.0 14.5 0.00 0.00 0.00 72 1010.4
20260504022601 8 226 0.0 1.6 0.00 0.00 0.00 74 1010.5
20260504022100 8 318 0.0 1.6 0.00 0.00 0.00 73 1010.5
20260504021557 8 292 0.0 12.9 0.00 0.00 0.00 73 1010.5
20260504021056 9 283 1.6 17.7 0.00 0.00 0.00 72 1010.7
20260504020559 9 300 6.4 22.5 0.00 0.00 0.00 69 1010.9
20260504020106 10 291 4.8 29.0 0.00 0.00 0.00 65 1010.9
20260504015556 10 290 4.8 32.2 0.00 0.00 0.00 62 1010.9
20260504015055 10 268 12.9 32.2 0.00 0.00 0.00 61 1010.8
20260504014604 10 300 0.0 14.5 0.00 0.00 0.00 60 1010.6
20260504014054 10 309 1.6 14.5 0.00 0.00 0.00 58 1010.6
20260504013554 10 302 0.0 19.3 0.00 0.00 0.00 58 1010.5
20260504013056 11 238 4.8 25.7 0.00 0.00 0.00 57 1010.5
20260504012555 11 273 3.2 32.2 0.00 0.00 0.00 57 1010.4
20260504012052 11 263 12.9 32.2 0.00 0.00 0.00 56 1010.5
20260504011553 11 286 8.0 33.8 0.00 0.00 0.00 54 1010.4
20260504011052 11 273 11.3 33.8 0.00 0.00 0.00 54 1010.4
20260504010552 11 247 6.4 25.7 0.00 0.00 0.00 55 1010.4
20260504010058 10 245 1.6 20.9 0.00 0.00 0.00 56 1010.3
20260504005554 10 273 0.0 19.3 0.00 0.00 0.00 57 1010.1
20260504005052 10 217 4.8 19.3 0.00 0.00 0.00 57 1010.1
20260504004552 10 234 0.0 1.6 0.00 0.00 0.00 58 1010.0
20260504004051 10 277 0.0 1.6 0.00 0.00 0.00 58 1010.0
20260504003551 10 230 0.0 0.0 0.00 0.00 0.00 58 1010.0
20260504003051 10 164 0.0 0.0 0.00 0.00 0.00 58 1009.9
20260504002551 10 251 0.0 0.0 0.00 0.00 0.00 58 1009.9
20260504002051 10 226 0.0 0.0 0.00 0.00 0.00 58 1009.9
20260504001557 10 240 0.0 1.6 0.00 0.00 0.00 58 1009.8
20260504001051 10 248 0.0 9.7 0.00 0.00 0.00 57 1009.8
20260504000551 10 166 0.0 9.7 0.00 0.00 0.00 57 1009.8
20260504000057 10 197 0.0 11.3 0.00 0.00 0.00 56 1009.8
20260503235550 10 256 0.0 20.9 0.00 0.00 0.00 56 1009.9
20260503235049 10 255 8.0 20.9 0.00 0.00 0.00 55 1010.0
20260503234550 10 273 1.6 27.4 0.00 0.00 0.00 55 1010.1
20260503234049 10 249 3.2 25.7 0.00 0.00 0.00 54 1010.3
20260503233549 10 306 9.7 32.2 0.00 0.00 0.00 52 1010.3
20260503233051 10 325 0.0 32.2 0.00 0.00 0.00 52 1010.2
20260503232552 10 247 8.0 20.9 0.00 0.00 0.00 51 1010.1
20260503232048 10 301 3.2 19.3 0.00 0.00 0.00 51 1010.0
20260503231547 10 217 0.0 0.0 0.00 0.00 0.00 51 1010.0
20260503231047 10 258 0.0 1.6 0.00 0.00 0.00 50 1009.9
20260503230548 10 287 0.0 1.6 0.00 0.00 0.00 50 1009.9
20260503230104 10 242 0.0 3.2 0.00 0.00 0.00 50 1009.9
20260503225547 10 283 0.0 6.4 0.00 0.00 0.00 49 1009.8
20260503225047 11 249 0.0 6.4 0.00 0.00 0.00 49 1009.7
20260503224546 11 199 0.0 4.8 0.00 0.00 0.00 50 1009.7
20260503224048 11 273 0.0 4.8 0.00 0.00 0.00 49 1009.7
20260503223547 11 254 0.0 3.2 0.00 0.00 0.00 48 1009.7
20260503223101 11 240 0.0 1.6 0.00 0.00 0.00 50 1009.6
20260503222546 11 315 0.0 11.3 0.00 0.00 0.00 49 1009.6
20260503222043 11 293 0.0 16.1 0.00 0.00 0.00 49 1009.7
20260503221549 11 227 1.6 17.7 0.00 0.00 0.00 49 1009.9
20260503221045 10 271 3.2 16.1 0.00 0.00 0.00 50 1009.9
20260503220542 10 247 0.0 16.1 0.00 0.00 0.00 51 1010.0
20260503220042 10 276 1.6 16.1 0.00 0.00 0.00 51 1010.0
20260503215542 10 249 1.6 16.1 0.00 0.00 0.00 51 1010.0
20260503215041 10 259 3.2 20.9 0.00 0.00 0.00 51 1009.9
20260503214553 10 275 9.7 22.5 0.00 0.00 0.00 51 1009.9
20260503214041 10 271 3.2 17.7 0.00 0.00 0.00 52 1009.9
20260503213541 10 285 3.2 12.9 0.00 0.00 0.00 51 1009.9
20260503213045 10 248 1.6 25.7 0.00 0.00 0.00 52 1009.9
20260503212541 10 275 9.7 24.1 0.00 0.00 0.00 51 1009.9
20260503212040 10 261 6.4 20.9 0.00 0.00 0.00 51 1009.9
20260503211541 10 234 4.8 22.5 0.00 0.00 0.00 51 1009.9
20260503211039 10 228 3.2 20.9 0.00 0.00 0.00 52 1009.8
20260503210539 10 276 1.6 14.5 0.00 0.00 0.00 51 1010.0
20260503210038 10 337 3.2 16.1 0.00 0.00 0.00 52 1010.0
20260503205537 10 299 1.6 16.1 0.00 0.00 0.00 51 1010.1
20260503205037 10 258 0.0 20.9 0.00 0.00 0.00 52 1010.0
20260503204543 10 280 6.4 17.7 0.00 0.00 0.00 50 1010.0
20260503204036 10 293 0.0 16.1 0.00 0.00 0.00 52 1010.0
20260503203535 10 279 4.8 16.1 0.00 0.00 0.00 51 1010.1
20260503203035 10 277 6.4 16.1 0.00 0.00 0.00 51 1010.1